Regional Weather Roundup
Issued by NWS

Home | Current Version | Previous Version | Graphics & Text | Print | Product List | Glossary On
Versions: 1 2 3 4 5 6 7 8 9 10 11 12 13 14 15 16 17 18 19 20 21 22 23 24 25 26 27 28 29 30 31 32 33 34 35 36 37 38 39 40 41 42 43 44 45 46 47 48 49 50
000
ASUS43 KFSD 160202
RWRSD

WEATHER ROUNDUP FOR SOUTH DAKOTA
NATIONAL WEATHER SERVICE SIOUX FALLS SD
900 PM CDT MON SEP 15 2014

NOTE: "FAIR" INDICATES FEW OR NO CLOUDS BELOW 12,000 FEET WITH NO
SIGNIFICANT WEATHER AND/OR OBSTRUCTIONS TO VISIBILITY.


SDZ001>005-009-010-012>017-160300-
NORTHWEST AND NORTH CENTRAL SOUTH DAKOTA

CITY           SKY/WX    TMP DP  RH WIND       PRES   REMARKS
FAITH            N/A     52  40  63 SE13      30.13F
MOBRIDGE       CLEAR     48  41  76 S3        30.14S
$$

SDZ012>016-024>037-041>051-057-063-072>074-160300-
SOUTHWEST AND SOUTH CENTRAL SOUTH DAKOTA

CITY           SKY/WX    TMP DP  RH WIND       PRES   REMARKS
RAPID CTY ARPT CLEAR     54  44  69 SE8       30.12F
PIERRE         CLEAR     52  39  61 SE8       30.16F
CUSTER         CLEAR     50  41  71 CALM      30.22S
ELLSWORTH AFB  CLEAR     57  45  64 S8        30.11F
PHILIP         CLEAR     51  41  68 E8        30.14F
PINE RIDGE     CLEAR     61  42  49 S8        30.16S
WINNER         FAIR      51  40  65 SE9       30.21S
$$

SDZ004>011-016>023-039-040-160300-
NORTHEAST SOUTH DAKOTA

CITY           SKY/WX    TMP DP  RH WIND       PRES   REMARKS
ABERDEEN       CLEAR     43  39  86 S6        30.19S
WATERTOWN      CLEAR     50  37  61 CALM      30.21S
$$

SDZ017-020-022-023-036>040-048>070-160300-
SOUTHEAST SOUTH DAKOTA

CITY           SKY/WX    TMP DP  RH WIND       PRES   REMARKS
SIOUX FALLS    CLEAR     49  43  80 CALM      30.23S
HURON          CLEAR     50  38  63 SE3       30.21S
CHAMBERLAIN    CLEAR     47  40  75 SE6       30.21S
MITCHELL       CLEAR     54  41  61 S3        30.23R
YANKTON        CLEAR     54  41  62 CALM      30.24R
$$

ABBREVIATIONS USED IN REMARKS
   TC - TEMPERATURE IN CELSIUS
  WCI - WIND CHILL INDEX
   HX - HEAT INDEX
  VSB - VISIBILITY



USA.gov is the U.S. government's official web portal to all federal, state and local government web resources and services.